星链-35428(STARLINK-35428)

导读

STARLINK-35428是美国SpaceX公司星链(Starlink)星座的一颗低轨宽带通信卫星,于2025年10月22日发射。作为全球卫星互联网项目的组成部分,它运行于近地轨道,依托相控阵通信技术,为全球偏远地区、海上和移动场景提供高速低延迟的宽带互联网接入服务,助力星链实现全球网络覆盖,推动空天地一体化网络建设。

Basic Information
目录编号:
66115
目录名称:
STARLINK-35428
国际标识:
2025-237B
轨道中心:
EARTH
卫星名称:
星链-35428
卫星全名:
星链-35428(STARLINK-35428)
卫星状态:
在轨 (已飞行317 天)
发射日期:
2025-10-22 UTC
国别 :
美国 (US)
星等 :
--
Orbit Information
数据来源 国际轨道数据
星历时间: 2026-09-03T21:10:51+0800
20小时前
查看轨道信息
半长轴: 6840.82km
偏心率: 0.0000338
轨道倾角: 53.159°
近地点辐角 23.454°
升交点赤经 292.639°
平近点角 336.648°
近地点: 462.451km
远地点: 462.915km
周期: 93.847分钟
每日圈数: 15.344069
Detailed Information
固有亮度:
5
最大亮度:
2.5
卫星平台:
Starlink V1.0
覆盖范围:
全球
运营商:
太空探索技术公司
运营商所在国:
美国
制造商(研发单位):
太空探索技术公司
制造商所在国:
美国
使用方式:
暂无
Satellite Introduction
Starlink 计划是 SpaceX 推出的全球卫星互联网项目,通过发射低轨道卫星,为全球尤其是偏远地区提供高速、低延迟的互联网服务。自 2019 年起,Starlink 已部署数千颗卫星,旨在缩小全球数字鸿沟,推动互联网普及。该项目还为军事、航空等行业提供通信支持,带来广泛经济效益。
2D Orbit Map
3D Orbit Map
Orbit Altitude Analysis Chart
Orbit Inclination Analysis Chart
Orbit Comprehensive Analysis Chart
View Comprehensive Chart
Conjunction Data List
Event ID Objects TCA Miss Dist (km) Collision Risk Probability Collision Risk Index (CRI) Action
CDM_260905-044206-584706-611521
2026-09-05T
04:42:57+0000
0.480 km
远距离
1.190386E-4 高风险 0.77
CDM_260904-231406-584706-611521
2026-09-04T
23:14:42+0000
0.550 km
远距离
8.372364E-5 中风险 0.73
CDM_260905-043206-611506-938021
2026-09-05T
04:32:58+0000
0.935 km
远距离
2.044127E-5 中风险 0.61
CDM_260906-102405-803106-611521
2026-09-06T
10:24:48+0000
1.075 km
极远距离
9.568449E-6 低风险 0.55
CDM_260905-025906-611506-938021
2026-09-05T
02:59:11+0000
1.527 km
极远距离
3.882527E-6 低风险 0.47
CDM_260906-044605-175106-611521
2026-09-06T
04:46:28+0000
1.591 km
极远距离
3.483041E-6 低风险 0.46
CDM_260906-172605-803106-611521
2026-09-06T
17:26:51+0000
1.470 km
极远距离
3.357786E-6 低风险 0.46
CDM_260906-062005-175106-611521
2026-09-06T
06:20:16+0000
1.840 km
极远距离
2.288094E-6 低风险 0.42
CDM_260906-115805-803106-611521
2026-09-06T
11:58:35+0000
1.932 km
极远距离
1.549492E-6 低风险 0.39
CDM_260905-060606-611506-938021
2026-09-05T
06:06:46+0000
2.702 km
极远距离
1.014898E-6 低风险 0.35